Location: Gniazdowice
(50.2124°N, 20.2673°E)
Time: 16:33:59
(UTC+00:00)

DELTA 2 R/B (1) - Pass Details

Date: 23 May 2024
Orbit: 788 x 802 km, 39.6° (Epoch: 11 June)

Event Time Altitude Azimuth Distance (km) Brightness Sun altitude
Exits shadow 00:26:15 23° 210° (SSW) 1,613 4.5 -15.1°
Maximum altitude 00:27:54 27° 182° (S) 1,471 4.5 -14.9°
Drops below altitude 10° 00:32:30 10° 126° (SE) 2,348 5.9 -14.6°
Sets 00:35:17 0° 114° (ESE) 3,275 6.8 -14.4°
